This is the latest recevied weather packets stored in our database for station/object WR9A-13. If no packets are shown the sender has not sent any weather packets the latest 10 day(s).
| Time | Temp. | Humidity | Pressure | Rain* | Wind** | Luminosity | Snow |
|---|---|---|---|---|---|---|---|
| 1778112925 | 12.78° C | 52% | 1015.2 hPa | 0 mm | - | - | - |
| 1778112638 | 12.78° C | 52% | 1015.1 hPa | 0 mm | - | - | - |
| 1778112326 | 12.78° C | 52% | 1015 hPa | 0 mm | - | - | - |
| 1778112017 | 13.33° C | 51% | 1014.9 hPa | 0 mm | - | - | - |
| 1778111725 | 13.33° C | 50% | 1014.9 hPa | 0 mm | - | - | - |
| 1778111422 | 13.89° C | 50% | 1014.8 hPa | 0 mm | - | - | - |
| 1778111130 | 13.89° C | 50% | 1014.6 hPa | 0 mm | - | - | - |
| 1778110827 | 14.44° C | 49% | 1014.7 hPa | 0 mm | - | - | - |
| 1778110543 | 14.44° C | 49% | 1014.7 hPa | 0 mm | - | - | - |
| 1778110231 | 13.89° C | 51% | 1014.7 hPa | 0 mm | - | - | - |
| 1778109915 | 13.89° C | 51% | 1014.8 hPa | 0 mm | - | - | - |
| 1778109632 | 13.33° C | 51% | 1014.8 hPa | 0 mm | - | - | - |
| 1778109320 | 13.89° C | 50% | 1014.9 hPa | 0 mm | - | - | - |
| 1778109016 | 13.89° C | 50% | 1015 hPa | 0 mm | - | - | - |
| 1778108724 | 13.89° C | 50% | 1015 hPa | 0 mm | - | - | - |
| 1778108434 | 13.89° C | 49% | 1015 hPa | 0 mm | - | - | - |
| 1778108130 | 14.44° C | 49% | 1014.9 hPa | 0 mm | - | - | - |
| 1778107816 | 14.44° C | 49% | 1015.1 hPa | 0 mm | - | - | - |
| 1778107533 | 14.44° C | 49% | 1015 hPa | 0 mm | - | - | - |
| 1778107221 | 14.44° C | 48% | 1015.1 hPa | 0 mm | - | - | - |
| 1778106917 | 14.44° C | 48% | 1015 hPa | 0 mm | - | - | - |
| 1778106625 | 14.44° C | 50% | 1015 hPa | 0 mm | - | - | - |
| 1778106321 | 14.44° C | 48% | 1015 hPa | 0 mm | - | - | - |
| 1778106029 | 13.89° C | 49% | 1015 hPa | 0 mm | - | - | - |
| 1778105726 | 13.89° C | 47% | 1014.9 hPa | 0 mm | - | - | - |
* Rain latest hour (hover to see other rain measurements)
** Current wind speed in m/s (hover to see current wind gust speed)